Home   Weather   Creston   Past weeks

Flag for Canada Past Weather in Creston, British Columbia, Canada — Yesterday and Last 2 Weeks

Now
26 °F

Chilly.


Feels Like: 22 °F
Forecast: N/A
Wind: 3 mph from East

Location: Creston

Current Time: Dec 5, 2016 at 9:57:53 am

Latest Report: Dec 5, 2016 at 9:00 am


Visibility: N/A

Pressure: 30.13 "Hg (27.86 "Hg at 617m altitude)

Humidity: 60%

Dew Point: 14 °F

Location of CrestonLocation

Past Weather in Creston — Graph

°F

Creston Temperature Yesterday

Maximum temperature yesterday: 42 °F (at 12:00 pm)
Minimum temperature yesterday: 31 °F (at 11:00 pm)
Average temperature yesterday: 36 °F

High & Low Weather Summary for the Past Weeks

 TemperatureHumidityPressure
High48 °F (Nov 26, 3:00 pm)100% (Nov 20, 10:00 am)30.37 "Hg (Nov 20, 10:00 am)
Low26 °F (Dec 5, 8:00 am)45% (Dec 5, 2:00 am)29.53 "Hg (Nov 28, 1:00 am)
Average37 °F86%29.99 "Hg
* Reported Nov 20 8:00 am — Dec 5 8:00 am, Creston, Weather by CustomWeather, © 2016

Note: Actual official high and low records may vary slightly from our data, if they occured in-between our weather recording intervals... More about our weather records

Advertising

Creston Weather History for the Previous 24 Hours

Scroll right to see more
 ConditionsComfort  
Time TempWeatherWind HumidityBarometerVisibility
8:00 am
Mon, Dec 5
26 °FChilly.5 mph62%30.10 "HgN/A
7:00 am26 °FChilly.2 mph55%30.09 "HgN/A
6:00 am27 °FChilly.6 mph48%30.06 "HgN/A
5:00 am28 °FChilly.10 mph45%30.04 "HgN/A
4:00 am28 °FChilly.6 mph47%30.03 "HgN/A
3:00 am28 °FChilly.6 mph49%30.00 "HgN/A
2:00 am30 °FChilly.6 mph45%29.98 "HgN/A
1:00 am30 °FChilly.6 mph48%29.96 "HgN/A
12:00 am31 °FChilly.7 mph47%29.92 "HgN/A
11:00 pm
Sun, Dec 4
31 °FChilly.2 mph60%29.89 "HgN/A
10:00 pm32 °FChilly.8 mph59%29.87 "HgN/A
9:00 pm32 °FChilly.2 mph61%29.83 "HgN/A
8:00 pm34 °FChilly.8 mph55%29.81 "HgN/A
7:00 pm32 °FChilly.2 mph71%29.79 "HgN/A
6:00 pm33 °FChilly.2 mph71%29.77 "HgN/A
5:00 pm36 °FChilly.2 mph55%29.75 "HgN/A
4:00 pm38 °FChilly.8 mph57%29.72 "HgN/A
3:00 pm40 °FChilly.3 mph52%29.71 "HgN/A
2:00 pm37 °FChilly.5 mph71%29.70 "HgN/A
1:00 pm39 °FChilly.1 mph61%29.69 "HgN/A
12:00 pm42 °FQuite cool.5 mph55%29.69 "HgN/A
11:00 am38 °FChilly.1 mph77%29.71 "HgN/A
10:00 am36 °FChilly.No wind95%29.73 "HgN/A
9:00 am34 °FChilly.2 mph91%29.75 "HgN/A
Weather by CustomWeather, © 2016

See weather overviewHow to use our weather pages